[[{"header":{"parameterUnit":"m.s-1","parameterCategory":1,"la1":30.2991,"la2":30.254,"lo1":-89.0895,"lo2":-89.0444,"dy":0.0017,"dx":0.0017,"nx":28,"ny":28,"refTime":"2023-10-31T03:00:00:Z","depth":0,"parameterNumber":2,"parameterNumberName":"U-component_of_WINDS"},"data":[0,0,0,0,0,0,0,0,0,0,0,0,0,0,0,0,0,0,0,0,0,0,0,0,0,0,0,0,0,0,0,0,0,0,0,0,0,0,0,0,0,0,0,0,0,0,0,0,0,0,0,0,0,0,0,0,0,0,1.0091,1.0091,0,1.0146,1.0147,1.0148,1.018,1.018,1.018,1.018,1.0237,1.0238,1.0239,0,0,0,0,0,0,0,0,0,0,0,0,0,1.0014,1.0016,1.0091,1.0092,1.0092,1.0146,1.0147,1.0148,1.018,1.018,1.018,1.018,1.0236,1.0238,1.024,0,0,0,0,0,0,0,0,0,0,0,0,0,1.0056,1.0016,1.0091,1.0115,1.0117,1.0146,1.0147,1.0148,1.018,1.018,1.018,1.018,1.0236,1.0238,1.024,1.0249,0,0,1.0246,1.0247,0,0,0,0,0,0,0,0,1.0054,1.0059,1.011,1.0113,1.0116,1.0156,1.0141,1.0182,1.018,1.0156,1.018,1.018,1.021,1.0214,1.0224,1.0252,1.0254,1.0246,1.0248,1.0248,1.0249,0,0,0,0,0,0,0,1.0051,1.0057,1.0113,1.0111,1.0115,1.0123,1.0129,1.0149,1.0181,1.0158,1.016,1.0167,1.0211,1.0222,1.0226,1.0255,1.0246,1.0248,1.0249,1.025,1.0295,1.0295,0,0,0,0,0,0,1.0044,1.0054,1.0111,1.0114,1.0085,1.0124,1.0131,1.0143,1.0181,1.0187,1.0166,1.0168,1.0218,1.0223,1.0228,1.0242,1.0248,1.025,1.0252,1.0295,1.0295,1.0295,0,0,0,0,0,0,1.0042,1.0049,1.0109,1.0085,1.0093,1.0126,1.0139,1.0144,1.0155,1.0187,1.0193,1.0171,1.0219,1.0225,1.0244,1.0244,1.0251,1.0253,1.0295,1.0295,1.0295,1.027,0,0,0,0,0,0,1.004,1.0048,1.0051,1.0085,1.0095,1.0123,1.0139,1.0145,1.0158,1.0161,1.0193,1.0199,1.0219,1.0241,1.0246,1.0247,1.0255,1.0295,1.0295,1.0295,1.0271,1.0269,1.0267,0,0,0,0,0,1.0037,1.0042,1.0051,1.0058,1.0099,1.0123,1.0129,1.0152,1.0158,1.0162,1.0183,1.0198,1.0244,1.0242,1.0249,1.0251,1.0295,1.0295,1.0295,1.0272,1.0269,1.0267,0,0,0,0,0,0,1.0006,1.0046,1.0057,1.0073,1.0094,1.0129,1.0134,1.0149,1.0169,1.017,1.0199,1.0206,1.0223,1.0239,1.0236,1.0263,1.0271,1.0272,1.0251,1.0249,1.0248,1.0243,1.0257,0,0,0,0,0,1.0002,1.0017,1.0052,1.0062,1.0072,1.0101,1.0113,1.0129,1.0153,1.0162,1.0185,1.0207,1.0227,1.0239,1.0259,1.0274,1.0282,1.0279,1.0277,1.0275,1.0276,1.0286,1.0285,1.0295,1.0295,1.0295,0,0,0.9991,1.0015,1.0023,1.0056,1.0075,1.0092,1.0109,1.0125,1.0138,1.0164,1.0184,1.0202,1.0229,1.0246,1.0255,1.026,1.0275,1.0275,1.0274,1.0275,1.0286,1.0285,1.0284,1.0295,1.0295,1.0295,0,0,0.9981,1.0,1.0012,1.003,1.0059,1.0079,1.0082,1.0114,1.0127,1.0147,1.0168,1.0184,1.0217,1.0236,1.025,1.025,1.0265,1.0256,1.0247,1.0257,1.0256,1.0255,1.0256,1.0256,1.0257,1.0256,1.0256,0,0.9964,0.999,1.0015,1.0031,1.0046,1.0071,1.0084,1.0101,1.0134,1.0144,1.015,1.0193,1.0213,1.0236,1.0236,1.0247,1.0251,1.0252,1.0254,1.0254,1.0254,1.0255,1.0255,1.0255,1.0255,1.0255,1.0256,0,0.9969,0.9986,0.9992,1.0024,1.004,1.0053,1.0082,1.0095,1.011,1.013,1.0151,1.0177,1.0203,1.021,1.0225,1.0236,1.0238,1.0249,1.0258,1.0251,1.0253,1.0253,1.0253,1.0254,1.0254,1.0255,0,0,0.9938,0.9986,0.9988,1.0004,1.0038,1.0053,1.0069,1.0095,1.0105,1.0128,1.0143,1.0172,1.0182,1.0198,1.0216,1.0225,1.0225,1.0235,1.0236,1.0232,1.0239,1.0231,1.0231,1.0235,1.0235,1.0235,1.0237,0,0.9933,0.9962,0.9987,1.0007,1.0024,1.0051,1.0065,1.0088,1.0107,1.0126,1.0147,1.0167,1.0179,1.0189,1.0199,1.0222,1.0226,1.0223,1.0249,1.025,1.0241,1.0232,1.0222,1.0223,1.0238,1.0238,1.0238,0,0.993,0.9953,0.9975,1.0009,1.0018,1.003,1.0057,1.0073,1.0101,1.0115,1.0134,1.0153,1.0172,1.0181,1.0208,1.0205,1.0218,1.0231,1.0232,1.0235,1.0243,1.0234,1.0223,1.0223,1.0239,1.0239,1.0239,0,0.9906,0.9942,0.996,0.9973,1.0014,1.0022,1.004,1.0068,1.0082,1.0106,1.0117,1.0142,1.0156,1.0177,1.0203,1.0206,1.0228,1.0238,1.0241,1.024,1.0243,1.0242,1.0234,1.0252,1.0252,1.0252,1.0252,0,0.9897,0.991,0.995,0.9961,0.9977,1.0006,1.0021,1.0041,1.0066,1.0083,1.0107,1.0122,1.0156,1.0176,1.0197,1.0217,1.0223,1.0235,1.0241,1.0233,1.0231,1.0241,1.0242,1.0252,1.0252,1.0252,1.0252,0,0.9872,0.99,0.9922,0.9959,0.9969,0.9979,1.0012,1.0024,1.0046,1.0066,1.0073,1.0107,1.0132,1.016,1.0194,1.0208,1.0227,1.0235,1.0217,1.022,1.0221,1.0221,1.0218,1.022,1.0236,1.0236,1.0236,0,0.9864,0.9874,0.9914,0.9927,0.9943,0.9964,0.9979,1.0009,1.0025,1.0059,1.0068,1.0094,1.0117,1.0155,1.0183,1.021,1.0218,1.0216,1.0222,1.0215,1.0219,1.0218,1.0219,1.0214,1.0213,1.0213,1.0213,0,0.9847,0.9861,0.9882,0.9909,0.9927,0.995,0.9974,0.9983,1.0018,1.0035,1.006,1.0078,1.0113,1.014,1.017,1.0189,1.0207,1.0211,1.0213,1.0205,1.0194,1.02,1.0212,1.021,1.0211,1.0211,1.0211,1.0211,0.9831,0.9842,0.9871,0.9895,0.9916,0.9939,0.9953,0.9977,0.9999,1.003,1.0047,1.0072,1.0103,1.0145,1.0164,1.0185,1.0191,1.0194,1.0195,1.0195,1.0193,1.0192,1.0191,1.0191,1.0191,1.0191,1.0191,0,0.9815,0.9836,0.9858,0.989,0.991,0.9926,0.9954,0.9969,0.9991,1.0017,1.004,1.007,1.0097,1.0128,1.0157,1.0168,1.0177,1.0174,1.0174,1.0178,1.0186,1.0181,1.0167,1.0167,1.0167,1.0167,1.0167,1.0167,0.9809,0.9829,0.9847,0.9879,0.99,0.9925,0.994,0.9961,0.9982,1.0015,1.0038,1.0058,1.0087,1.0119,1.0145,1.0153,1.0163,1.0158,1.0169,1.0175,1.0177,1.0179,1.0175,1.016,1.016,1.016,1.016,1.0159]},{"header":{"parameterUnit":"m.s-1","parameterCategory":1,"la1":30.2991,"la2":30.254,"lo1":-89.0895,"lo2":-89.0444,"dy":0.0017,"dx":0.0017,"nx":28,"ny":28,"refTime":"2023-10-31T03:00:00:Z","depth":0,"parameterNumber":3,"parameterNumberName":"V-component_of_WINDS"},"data":[0,0,0,0,0,0,0,0,0,0,0,0,0,0,0,0,0,0,0,0,0,0,0,0,0,0,0,0,0,0,0,0,0,0,0,0,0,0,0,0,0,0,0,0,0,0,0,0,0,0,0,0,0,0,0,0,0,0,-8.226,-8.2261,0,-8.2365,-8.2367,-8.2368,-8.2325,-8.2322,-8.232,-8.2318,-8.2419,-8.2424,-8.2429,0,0,0,0,0,0,0,0,0,0,0,0,0,-8.2016,-8.202,-8.226,-8.2261,-8.2262,-8.2365,-8.2367,-8.2368,-8.2325,-8.2322,-8.2319,-8.2317,-8.2417,-8.2423,-8.2429,0,0,0,0,0,0,0,0,0,0,0,0,0,-8.2121,-8.2022,-8.2259,-8.2254,-8.2254,-8.2365,-8.2367,-8.2368,-8.2326,-8.2322,-8.2319,-8.2315,-8.2415,-8.2422,-8.243,-8.255,0,0,-8.2453,-8.2456,0,0,0,0,0,0,0,0,-8.2115,-8.213,-8.2253,-8.2254,-8.2255,-8.2328,-8.2318,-8.2429,-8.2327,-8.2298,-8.2318,-8.2313,-8.2391,-8.24,-8.2428,-8.2555,-8.2559,-8.2453,-8.2458,-8.2461,-8.2463,0,0,0,0,0,0,0,-8.2108,-8.2126,-8.2301,-8.2255,-8.2256,-8.2244,-8.2255,-8.2339,-8.2364,-8.2301,-8.2298,-8.2311,-8.2391,-8.2421,-8.243,-8.2561,-8.2453,-8.246,-8.2464,-8.2467,-8.2794,-8.2798,0,0,0,0,0,0,-8.2101,-8.212,-8.2298,-8.2304,-8.2175,-8.2251,-8.2264,-8.2308,-8.2363,-8.2368,-8.2314,-8.2309,-8.241,-8.2422,-8.2434,-8.258,-8.2461,-8.2468,-8.2472,-8.279,-8.2795,-8.28,0,0,0,0,0,0,-8.2096,-8.2118,-8.2294,-8.2212,-8.2233,-8.226,-8.231,-8.2312,-8.2343,-8.2374,-8.2377,-8.2341,-8.2408,-8.2423,-8.2523,-8.2582,-8.2472,-8.2478,-8.2785,-8.2792,-8.2797,-8.2872,0,0,0,0,0,0,-8.209,-8.2116,-8.2163,-8.2213,-8.2238,-8.2383,-8.2314,-8.2317,-8.2357,-8.235,-8.2399,-8.2404,-8.2406,-8.2512,-8.253,-8.2591,-8.2484,-8.278,-8.2788,-8.2795,-8.2864,-8.288,-8.2893,0,0,0,0,0,-8.2081,-8.2178,-8.2166,-8.2187,-8.2297,-8.2386,-8.24,-8.2402,-8.2361,-8.2408,-8.2429,-8.2402,-8.2573,-8.2522,-8.2543,-8.2606,-8.2776,-8.2786,-8.2795,-8.2857,-8.2877,-8.2893,0,0,0,0,0,0,-8.2131,-8.2184,-8.2171,-8.2287,-8.2333,-8.2379,-8.2438,-8.2422,-8.2478,-8.247,-8.2468,-8.248,-8.2583,-8.2604,-8.2547,-8.2727,-8.2668,-8.2682,-8.2709,-8.2727,-8.2742,-8.2734,-8.249,0,0,0,0,0,-8.2156,-8.2226,-8.2268,-8.2366,-8.239,-8.241,-8.2449,-8.2448,-8.2493,-8.2511,-8.2539,-8.2583,-8.2647,-8.2688,-8.2748,-8.2868,-8.2877,-8.2921,-8.2936,-8.2948,-8.2959,-8.3025,-8.3045,-8.283,-8.283,-8.283,0,0,-8.2207,-8.2245,-8.2288,-8.2377,-8.2412,-8.2483,-8.2426,-8.2503,-8.2555,-8.2522,-8.2619,-8.2641,-8.269,-8.28,-8.285,-8.2821,-8.3022,-8.296,-8.2969,-8.2974,-8.3037,-8.3057,-8.3075,-8.2837,-8.2836,-8.2835,0,0,-8.2337,-8.2373,-8.246,-8.2497,-8.2553,-8.2566,-8.2587,-8.2637,-8.2651,-8.2749,-8.2726,-8.2787,-8.2897,-8.2933,-8.2966,-8.3114,-8.3092,-8.3134,-8.3209,-8.3273,-8.329,-8.3305,-8.3358,-8.3377,-8.3145,-8.3145,-8.3146,0,-8.2393,-8.2501,-8.2505,-8.2586,-8.2625,-8.2603,-8.269,-8.2725,-8.2796,-8.2824,-8.2792,-8.2931,-8.2962,-8.3081,-8.3118,-8.3145,-8.3168,-8.3127,-8.3288,-8.3303,-8.3317,-8.3367,-8.3387,-8.315,-8.315,-8.3149,-8.3149,0,-8.2567,-8.2643,-8.2706,-8.2779,-8.2826,-8.2909,-8.2925,-8.2972,-8.2968,-8.2984,-8.3085,-8.3122,-8.319,-8.3219,-8.3213,-8.3338,-8.3319,-8.3287,-8.3228,-8.3342,-8.3389,-8.3408,-8.3157,-8.3155,-8.3154,-8.3153,0,0,-8.2728,-8.2806,-8.2829,-8.2863,-8.2924,-8.2982,-8.3064,-8.3134,-8.3174,-8.3225,-8.3293,-8.3389,-8.3361,-8.3399,-8.3397,-8.3454,-8.357,-8.3416,-8.3417,-8.3443,-8.371,-8.3732,-8.3754,-8.3556,-8.356,-8.3563,-8.3705,0,-8.2862,-8.301,-8.3018,-8.3151,-8.3221,-8.3203,-8.3275,-8.3319,-8.3338,-8.3399,-8.3418,-8.3486,-8.3444,-8.3467,-8.3522,-8.3544,-8.3623,-8.3534,-8.3618,-8.3621,-8.3606,-8.3779,-8.3803,-8.3935,-8.3724,-8.3727,-8.3729,0,-8.3038,-8.3098,-8.324,-8.3294,-8.3323,-8.3388,-8.3454,-8.3513,-8.3563,-8.3573,-8.3617,-8.3609,-8.3692,-8.3632,-8.3747,-8.3686,-8.3721,-8.3738,-8.3743,-8.3749,-8.3681,-8.379,-8.3977,-8.3997,-8.3758,-8.3756,-8.3754,0,-8.3142,-8.3258,-8.3358,-8.3387,-8.3452,-8.3499,-8.3527,-8.3575,-8.3617,-8.3674,-8.3702,-8.3767,-8.3802,-8.3852,-8.3861,-8.3817,-8.3976,-8.3917,-8.3985,-8.3985,-8.4018,-8.4016,-8.4213,-8.4043,-8.4043,-8.4042,-8.4042,0,-8.329,-8.3377,-8.3406,-8.3467,-8.3564,-8.3573,-8.3668,-8.3693,-8.3736,-8.3801,-8.3788,-8.3849,-8.3858,-8.3921,-8.3929,-8.4023,-8.4038,-8.4048,-8.4048,-8.4048,-8.4047,-8.407,-8.4061,-8.4048,-8.4046,-8.4045,-8.4045,0,-8.3421,-8.3444,-8.3552,-8.3607,-8.3622,-8.3691,-8.3737,-8.3795,-8.3814,-8.3897,-8.3916,-8.3945,-8.4018,-8.4034,-8.4119,-8.4125,-8.4236,-8.4228,-8.422,-8.4219,-8.4287,-8.428,-8.4505,-8.4535,-8.4346,-8.4348,-8.4349,0,-8.3514,-8.3581,-8.3645,-8.3689,-8.3721,-8.3792,-8.3837,-8.3848,-8.3895,-8.3959,-8.401,-8.4083,-8.4141,-8.426,-8.4286,-8.4352,-8.4345,-8.442,-8.4355,-8.4353,-8.4346,-8.4341,-8.4348,-8.4431,-8.4433,-8.4435,-8.4436,0,-8.3676,-8.3685,-8.3751,-8.3823,-8.3877,-8.3932,-8.3985,-8.4021,-8.404,-8.4093,-8.417,-8.4216,-8.4306,-8.4378,-8.4445,-8.4473,-8.4458,-8.4458,-8.4477,-8.4476,-8.4469,-8.4474,-8.4253,-8.4451,-8.445,-8.4449,-8.4448,-8.4447,-8.3791,-8.385,-8.3906,-8.398,-8.4022,-8.4072,-8.4131,-8.4159,-8.4224,-8.43,-8.4303,-8.4387,-8.4437,-8.4526,-8.4558,-8.4622,-8.4599,-8.4627,-8.4633,-8.464,-8.4646,-8.4461,-8.4635,-8.4634,-8.4634,-8.4633,-8.4633,0,-8.3952,-8.3988,-8.4057,-8.4133,-8.4192,-8.4177,-8.4235,-8.4285,-8.436,-8.4409,-8.4469,-8.4558,-8.4628,-8.4663,-8.4732,-8.4778,-8.4773,-8.4795,-8.4791,-8.4798,-8.4663,-8.464,-8.4799,-8.4798,-8.4798,-8.4798,-8.4798,-8.4798,-8.4043,-8.4144,-8.416,-8.4281,-8.4315,-8.44,-8.4435,-8.4481,-8.4521,-8.4622,-8.4682,-8.4705,-8.4749,-8.4822,-8.4886,-8.4894,-8.492,-8.4946,-8.4951,-8.4824,-8.4807,-8.4791,-8.4769,-8.4952,-8.4952,-8.508,-8.5081,-8.5082]}]]